Regional Weather Roundup
Issued by NWS

Home | Current Version | Previous Version | Text Only | Print | Product List | Glossary On
Versions: 1 2 3 4 5 6 7 8 9 10 11 12 13 14 15 16 17 18 19 20 21 22 23 24 25 26 27 28 29 30 31 32 33 34 35 36 37 38 39 40 41 42 43 44 45 46 47 48 49 50
000
ASUS43 KTOP 132259
RWRKS

WEATHER ROUNDUP FOR KANSAS
NATIONAL WEATHER SERVICE GOODLAND KS
500 PM CST WED DEC 13 2017

NOTE:  "FAIR" INDICATES FEW OR NO CLOUDS BELOW 12,000 FEET WITH NO
SIGNIFICANT WEATHER AND/OR OBSTRUCTIONS TO VISIBILITY.

KSZ001>006-013>018-027>032-041>047-140000-
NORTHWEST KANSAS

CITY           SKY/WX    TMP DP  RH WIND       PRES   REMARKS
GOODLAND       CLEAR     49  14  24 N14G25    29.97R
HAYS           CLEAR     53  15  22 N16       29.92S
HILL CITY      CLEAR     52  15  23 N14       29.95R
RUSSELL        CLEAR     54  17  23 NW16      29.91R
$$

KSZ061>065-074>080-084>089-140000-
SOUTHWEST KANSAS

CITY           SKY/WX    TMP DP  RH WIND       PRES   REMARKS
DODGE CITY     CLEAR     54  17  23 NW6       29.96R
GARDEN CITY    CLEAR     51  16  24 N9        29.96S
GREAT BEND     CLEAR     54  16  22 NW15      29.92R
LIBERAL        CLEAR     53  17  24 N5        29.97F
$$

KSZ066>073-081>083-090>101-140000-
SOUTHEAST KANSAS

CITY           SKY/WX    TMP DP  RH WIND       PRES   REMARKS
CHANUTE        CLEAR     58  25  28 NW12      29.84R
COFFEYVILLE    CLEAR     57  25  29 W7        29.84R
HUTCHINSON     CLEAR     57  23  26 N14       29.88R
MEDICINE LODGE   N/A     59  21  23 N8        29.90R
NEWTON         CLEAR     54  23  30 N16       29.88R
PARSONS        CLEAR     57  26  30 NW9       29.85R
WICHITA INTL   PTCLDY    59  23  25 NW10      29.88R
WICHITA JABRA  CLEAR     56  23  27 NW7       29.88R
WICHITA MCCONL CLEAR     58  22  24 NW9       29.88R
WINFIELD       CLEAR     56  23  27 N9        29.88S
$$

KSZ007>012-019>026-033>040-048>060-102>105-140000-
NORTHEAST KANSAS

CITY           SKY/WX    TMP DP  RH WIND       PRES   REMARKS
CONCORDIA      CLEAR     51  24  34 N15       29.87S
EMPORIA        CLEAR     54  24  31 NW13      29.85R
LAWRENCE       CLEAR     53  27  36 NW17      29.82R
MANHATTAN      CLEAR     55  25  31 N8        29.87R
OLATHE IND     CLEAR     52  26  36 NW15      29.81R
OLATHE EXE     CLEAR     53  26  35 NW14G26   29.80R
SALINA         CLEAR     55  26  32 N12       29.89R
TOPEKA BILLARD CLEAR     54  28  36 NW15G23   29.83R
TOPEKA FORBES  CLEAR     55  27  34 NW16      29.83R
$$




USA.gov is the U.S. government's official web portal to all federal, state and local government web resources and services.